Regional Weather Roundup
Issued by NWS Boston, MA

Home | Current Version | Previous Version | Text Only | Print | Product List | Glossary On
Versions: 1 2 3 4 5 6 7 8 9 10 11 12 13 14 15 16 17 18 19 20 21 22 23 24 25 26 27 28
000
ASUS41 KBOX 201610
RWRBOX

REGIONAL WEATHER ROUNDUP
NATIONAL WEATHER SERVICE TAUNTON MA
1100 AM EST MON FEB 20 2017

NOTE:  "FAIR" INDICATES FEW OR NO CLOUDS BELOW 12,000 FEET WITH NO
SIGNIFICANT WEATHER AND/OR OBSTRUCTIONS TO VISIBILITY.

MAZALL-201700-
EASTERN MASSACHUSETTS

CITY           SKY/WX    TMP DP  RH WIND       PRES   REMARKS
BOSTON         MOSUNNY   41  23  48 N9        30.15S
BEVERLY        PTSUNNY   40  22  48 N9        30.14S
LAWRENCE       SUNNY     40  19  43 NW14      30.16R
BEDFORD        MOSUNNY   39  16  39 N15       30.14S WCI  31
BLUE HILL      NOT AVBL
NORWOOD        SUNNY     43  21  41 N9        30.15R
MARSHFIELD     PTSUNNY   41  27  56 N8G15     30.14S
PLYMOUTH       PTSUNNY   42  24  49 N12       30.13R
TAUNTON        SUNNY     44  22  41 N8        30.13R
NEW BEDFORD    SUNNY     46  23  40 N9G17     30.11F
$$

MAZALL-201700-
CAPE COD AND THE ISLANDS

CITY           SKY/WX    TMP DP  RH WIND       PRES   REMARKS
FALMOUTH       MOSUNNY   43  27  52 MISG      30.12S
HYANNIS        CLOUDY    41  29  62 N10G22    30.10S
CHATHAM        CLOUDY    42  28  57 VRB7G17   30.12R
PROVINCETOWN   CLOUDY    39  28  64 N14       30.14R WCI  31
NANTUCKET      SUNNY     45  29  53 N21       30.11R
MARTHAS VNYRD  SUNNY     47  24  40 NW15      30.12R
$$

MAZALL-201700-
CENTRAL AND WESTERN MASSACHUSETTS

CITY           SKY/WX    TMP DP  RH WIND       PRES   REMARKS
WORCESTER      SUNNY     38  17  42 N10       30.12S WCI  31
FITCHBURG      SUNNY     40  20  44 N12       30.16R
ORANGE         SUNNY     38  16  40 NW15      30.16R WCI  29
SPRINGFIELD    SUNNY     41  22  47 N8        30.16R
WESTFIELD      SUNNY     42  22  44 N5        30.16R
NORTH ADAMS    MOSUNNY   36  20  52 W10       30.20R WCI  28
PITTSFIELD     SUNNY     37  16  42 NW9       30.15R WCI  30
$$

RIZALL-201700-
RHODE ISLAND

CITY           SKY/WX    TMP DP  RH WIND       PRES   REMARKS
PROVIDENCE     MOSUNNY   44  19  36 NW13G23   30.14S
NEWPORT        MOSUNNY   44  22  41 N12G22    30.12S
BLOCK ISLAND   MOSUNNY   44  32  62 NE7       30.14R
SMITHFIELD     SUNNY     40  19  43 N12       30.13S
WESTERLY       SUNNY     48  24  39 N12       30.14S
$$

CTZALL-201700-
CONNECTICUT

CITY           SKY/WX    TMP DP  RH WIND       PRES   REMARKS
BRADLEY INTL   MOSUNNY   44  22  41 N6        30.17R
HARTFORD       SUNNY     43  27  53 NE6       30.17R
BRIDGEPORT     SUNNY     49  21  33 NW14G24   30.18R
DANBURY        SUNNY     44  24  45 N9        30.19S
GROTON         MOSUNNY   47  29  49 N8        30.14S
NEW HAVEN      MOSUNNY   47  24  40 N10       30.17R
CHESTER        FAIR      45  25  45 NW12      30.15S
MERIDEN        SUNNY     46  22  38 N12G21    30.17S
WILLIMANTIC    SUNNY     45  21  38 NW13      30.16R
OXFORD         MOSUNNY   43  21  42 N12G18    30.18R
$$

MEZ002-015-021-024-NHZ003-005-008-011-012-014-VTZ005-008-201700-
NORTHERN NEW ENGLAND

CITY           SKY/WX    TMP DP  RH WIND       PRES   REMARKS
PORTLAND ME    CLOUDY    35  18  49 N15       30.16S WCI  25
BANGOR ME      MOSUNNY   35  18  49 NW18      30.11R WCI  24
CONCORD NH     SUNNY     37  16  42 NW12G20   30.17R WCI  29
MANCHESTER NH  MOSUNNY   39  17  41 NW14      30.15S WCI  31
NASHUA NH      SUNNY     39  18  42 NW15G23   30.17R WCI  31
PORTSMOUTH NH  PTSUNNY   38  21  51 NW3       30.14S
JAFFREY NH     SUNNY     38  14  37 N7        30.14S
KEENE NH       SUNNY     37  16  42 N15       30.17S WCI  28
BURLINGTON VT  MOSUNNY   31  17  56 NW13G22   30.30R WCI  21
MT. WASHINGTON FOG        5   5 100 NW31G43     N/A  VSB 1/16WCI -19
$$

NYZ052-076-201700-
EASTERN NEW YORK

CITY           SKY/WX    TMP DP  RH WIND       PRES   REMARKS
ALBANY         MOSUNNY   39  21  48 NW15G22   30.23R WCI  31
NEW YORK CITY  MOSUNNY   51  28  41 N12       30.19S
$$

ANZALL-201700-
MARINE OBSERVATIONS

STATION/POSITION TIME  TEMP    WIND        PRES    VSBY  WAVE
                       AIR SEA DIR/SP/G                  HT/PER
                 (UTC) (F)     (DEG/KT/KT) (MB)    (MI)  (FT/S)
BOSTON BUOY      1450   39 42  350/ 14/ 16 1020.0          3/ 5
BUZZARDS BAY     1500   41     350/ 12/ 13 1020.4R
NANTUCKET SOUND  1450   40 38   10/ 10/ 12 1019.5          1/ 3
MASS BAY-STELLWA 1504   38 40   20/ 16/ 17 1019.7R  1 7/8  4/ 6
ISLE OF SHOALS   1500   36      20/ 15/ 16 1020.5R
S OF BLOCK IS    1555      43                N/A           3/ 8
$$

......................KEY.........................
  SKY/WX - SKY CONDITION/PRESENT WEATHER
  TMP    - TEMPERATURE IN FAHRENHEIT
  DWPT   - DEWPOINT IN FAHRENHEIT
  RH     - RELATIVE HUMIDITY IN PERCENT
  WIND   - DIRECTION AND SPEED IN MPH
  PRES   - MEAN SEA LEVEL PRESSURE IN INCHES OF HG
  WCI    - WIND CHILL INDEX
  VSB    - VISIBILITY IN MILES
  HX     - HEAT INDEX
  TC     - TEMPERATURE IN CELSIUS
  VRB    - VARIABLE WIND DIRECTION
  N/A    - NOT AVAILABLE




USA.gov is the U.S. government's official web portal to all federal, state and local government web resources and services.